Temperature
15 15 15 15 15 15 15 15 15 15 15 15 15 15 15 15 15 14 14 15 15 15 15 15 15 15 15 15 15 15 15 15 15 15 15 15 15 15 15 15 15 15 15
15 15 15 15 14 15 15 15 15 15 15 15 14 14 14 14 14 14 14 14 14 14 15 15 15 15 14 15 15 15 15 15 15 15 15 14 14 15 15 15 15 15 15
14 14 14 14 14 14 14 14 14 14 14 14 14 14 14 14 14 14 14 14 14 14 14 14 14 14 14 14 14 14 14 14 14 14 14 14 14 14 14 14 14 15 15
14 14 14 14 14 14 14 14 14 14 14 14 14 14 14 14 14 14 14 14 14 14 14 14 14 14 14 14 14 14 14 14 14 14 14 14 14 14 14 14 14 14 14
14 14 14 14 14 14 14 14 14 14 14 14 14 14 14 14 14 14 13 13 13 13 13 14 14 14 14 14 14 14 14 14 14 14 14 14 14 14 14 14 14 14 14
14 14 14 14 14 14 14 14 14 14 14 14 14 14 14 14 13 13 13 13 13 13 13 13 13 13 13 14 14 14 13 13 13 13 13 13 13 13 13 13 13 14 14
14 14 14 14 14 13 13 13 13 13 13 13 13 14 14 13 13 13 13 13 13 13 13 13 13 13 13 13 13 13 13 13 13 13 13 13 13 13 13 13 13 13 13
14 14 13 13 13 13 13 13 13 13 13 13 13 14 14 14 13 13 13 13 13 13 13 13 13 13 13 13 13 13 13 13 13 13 13 13 13 13 13 13 13 13 13
14 14 13 13 13 13 13 13 13 13 13 13 13 13 14 15 14 13 13 13 13 13 12 13 12 12 12 12 12 13 13 13 13 13 13 13 13 13 13 13 13 13 13
14 14 13 13 13 13 13 13 13 13 12 13 13 13 13 13 14 14 13 13 13 12 12 12 12 12 12 12 12 12 13 13 13 13 13 13 13 13 13 13 13 13 13
14 14 13 13 13 13 13 13 12 12 12 12 12 12 12 13 13 13 13 13 13 12 12 12 12 12 12 12 12 12 12 12 12 12 12 12 12 13 12 12 12 12 13
14 13 13 13 13 13 13 12 12 12 12 12 12 12 12 12 13 13 13 13 13 13 12 12 12 12 12 12 12 12 12 12 12 12 12 12 12 12 12 12 12 12 12
13 13 13 13 13 13 13 12 12 12 12 12 12 12 12 12 12 12 12 13 12 12 12 12 12 12 12 11 12 12 12 12 12 12 12 12 12 12 12 12 12 12 12
13 13 13 13 13 12 12 12 12 12 12 12 12 12 12 12 12 12 12 12 12 13 12 12 12 12 11 11 11 12 11 12 12 12 12 12 12 12 12 12 12 12 12
13 13 13 13 13 12 12 12 12 12 12 12 12 12 11 11 11 11 11 11 12 12 13 12 12 12 11 11 11 11 11 11 11 11 11 11 11 11 12 11 11 11 11
13 13 13 12 12 12 12 12 12 12 11 11 11 11 11 11 11 11 11 11 11 11 12 12 11 11 11 11 11 11 11 11 11 11 11 11 11 11 11 11 11 11 11
13 12 12 12 12 12 12 12 11 11 11 11 11 11 11 11 11 11 11 11 11 11 11 11 11 11 11 11 11 11 11 11 11 11 11 11 11 11 11 11 11 11 11
12 12 12 12 12 12 11 11 11 11 11 11 11 11 11 11 11 10 10 10 10 10 10 10 10 10 11 11 10 10 10 10 10 10 11 11 11 11 11 11 11 11 11
12 12 11 11 11 11 11 11 11 11 11 10 10 10 10 10 10 10 10 10 10 10 10 10 10 10 10 10 10 10 10 10 10 10 10 10 10 10 10 10 10 10 10
11 11 11 11 11 11 11 11 11 10 10 10 10 10 10 10 10 10 10 10 10 10 10 10 10 10 10 10 10 10 10 10 10 10 10 10 10 10 10 10 10 10 10
11 11 11 11 11 10 10 10 10 10 10 10 10 10 10 10 10 10 10 9 9 9 9 9 9 9 9 9 10 9 9 9 9 9 9 9 9 10 10 10 10 10 10
11 10 10 10 10 10 10 10 10 10 10 10 10 9 9 9 9 9 9 9 9 9 9 9 9 9 9 9 9 9 9 9 9 9 9 9 9 9 9 9 9 9 9
10 10 10 10 10 10 10 10 10 10 9 9 9 9 9 9 9 9 9 9 9 9 9 9 9 9 9 9 9 9 9 9 9 9 9 9 9 9 9 9 9 9 9
10 10 10 10 10 10 10 10 10 9 9 9 9 9 9 8 8 8 8 8 8 8 8 8 8 8 8 8 8 8 8 8 8 8 8 8 8 8 8 8 8 8 8
9 9 9 9 9 9 9 9 9 9 8 8 8 8 8 8 8 8 8 8 8 8 8 8 8 8 8 8 8 8 7 8 8 8 8 8 8 8 8 8 8 8 8
9 9 9 9 9 9 9 9 9 8 8 8 8 8 8 8 8 8 8 7 7 7 7 7 7 7 7 7 8 7 7 7 7 7 7 7 7 7 7 7 7 7 7
Wind_Speed
3 3 4 4 4 4 4 4 5 6 5 6 6 6 7 7 6 6 7 10 10 10 9 9 9 8 8 8 8 8 9 9 10 10 10 10 9 7 7 7 7 7 7
3 3 3 3 3 4 4 4 4 4 4 5 5 6 6 6 6 6 6 7 9 9 9 9 9 8 7 7 6 7 7 8 8 9 9 9 9 9 8 7 7 8 8
3 3 2 3 3 3 3 4 4 3 3 3 4 5 5 5 5 5 6 5 5 7 8 8 9 9 8 6 5 6 6 7 8 8 9 9 9 9 8 8 8 8 8
3 3 2 2 2 2 3 3 3 3 3 3 3 3 4 4 5 5 5 5 4 5 6 8 8 9 8 8 8 8 8 8 8 8 8 8 8 8 8 8 8 8 8
2 2 2 2 2 2 2 2 2 2 2 2 2 3 3 3 3 3 4 5 5 4 5 5 6 8 9 9 9 8 8 8 8 8 8 7 8 7 7 7 7 7 7
1 1 1 1 2 1 1 1 2 2 1 1 2 2 2 2 2 3 3 3 4 5 5 4 3 5 7 8 8 8 8 8 7 7 7 7 6 7 7 6 6 6 6
0 1 1 1 1 0 0 0 1 1 1 1 1 1 1 1 2 2 2 2 2 3 3 4 4 3 3 5 6 7 6 6 6 6 6 6 6 6 6 6 6 6 6
0 0 1 1 1 1 1 1 0 1 1 1 2 2 1 1 1 1 1 1 2 2 2 3 3 3 3 2 6 6 5 5 4 4 4 5 5 5 6 6 5 5 5
1 1 1 1 2 2 2 2 2 2 1 1 2 2 2 1 1 1 1 1 2 2 1 2 2 3 2 2 2 4 4 4 4 4 4 4 4 4 4 5 5 5 5
1 1 2 2 2 2 2 2 2 2 2 2 1 2 3 3 3 1 1 1 2 2 2 1 2 2 2 2 2 3 3 3 3 3 3 3 3 3 3 3 3 3 4
2 2 2 2 2 2 2 2 2 2 2 3 2 2 2 2 4 3 2 2 1 1 1 2 2 2 2 1 1 2 2 2 2 2 2 3 3 3 3 2 2 3 3
2 2 2 2 2 2 3 3 3 3 3 3 3 3 3 3 3 3 3 3 3 2 1 1 2 1 1 1 0 2 1 1 1 1 1 2 2 3 3 2 2 2 2
2 2 2 2 2 2 2 3 3 3 3 4 4 3 3 4 3 4 4 4 4 3 2 2 2 2 2 2 1 2 2 1 1 1 1 1 2 2 2 2 1 1 2
2 2 2 2 2 2 2 2 2 2 3 3 4 3 3 3 3 4 4 4 4 4 3 3 2 2 2 2 1 3 3 3 1 1 0 1 1 2 2 2 2 2 2
2 2 2 2 2 2 2 2 2 3 3 3 3 3 3 3 3 4 4 5 5 5 5 4 3 2 2 2 1 3 2 3 3 2 1 1 1 1 1 2 2 2 2
2 2 2 2 1 1 2 2 3 3 3 3 3 3 3 3 3 3 4 4 5 6 6 4 3 3 2 3 2 3 3 3 5 4 3 2 2 2 2 2 2 2 2
3 2 2 2 2 2 2 2 2 3 4 4 3 4 4 4 3 3 4 4 5 5 6 6 4 3 3 4 2 3 3 3 3 5 4 3 3 3 3 3 3 2 2
3 3 3 2 2 2 2 2 3 3 4 4 4 4 4 3 4 4 4 5 5 6 6 6 5 4 4 3 3 3 3 3 3 4 5 4 4 4 4 3 3 2 2
3 3 3 3 2 2 3 3 3 4 4 5 5 5 5 4 5 4 4 5 4 4 5 6 5 4 3 3 3 3 4 3 4 4 5 5 5 4 4 3 3 3 2
4 4 4 3 3 3 3 3 3 4 4 5 5 5 5 5 6 5 5 5 4 4 4 5 5 4 4 3 3 3 3 3 3 3 3 4 5 5 5 4 3 3 3
4 4 4 4 4 3 3 3 3 4 4 4 4 5 5 4 5 5 4 4 4 4 4 5 5 5 4 3 3 4 4 3 4 3 3 4 4 4 4 5 5 4 4
3 4 4 4 4 3 1 3 5 4 4 4 4 5 4 4 4 4 4 5 5 6 6 5 5 6 6 5 4 4 4 4 4 3 4 4 4 4 3 4 4 5 5
3 3 4 4 4 3 1 2 5 5 4 4 5 4 4 4 5 5 4 4 5 5 6 7 7 7 7 6 6 6 6 6 5 3 4 5 4 4 3 3 5 6 6
3 3 3 4 4 2 1 2 4 5 5 5 5 5 5 5 4 5 5 5 5 5 6 6 7 7 7 7 6 7 7 7 6 4 4 5 4 4 4 3 5 7 6
3 3 3 3 3 3 1 2 4 5 5 5 5 5 5 5 4 6 5 5 6 5 4 5 5 6 7 7 7 5 5 5 5 5 4 4 4 4 4 4 5 7 7
3 3 3 3 4 4 1 2 4 4 5 5 4 5 4 5 4 5 6 6 6 6 6 5 5 6 6 5 6 6 6 6 5 5 3 4 4 3 4 4 4 5 5
Wind_Direction
74 76 77 65 57 54 53 51 54 54 51 48 48 46 44 43 44 44 56 61 56 50 47 47 43 42 41 42 42 46 50 54 57 60 63 64 63 64 62 63 62 60 62
74 76 80 70 57 47 49 53 61 60 55 53 47 44 41 38 40 42 51 62 63 52 44 42 40 37 34 38 44 49 52 50 53 58 61 62 61 59 59 63 62 60 61
70 69 69 70 60 55 61 61 62 60 63 61 54 47 43 38 40 46 49 46 57 62 49 39 37 34 32 37 50 54 57 53 54 54 56 57 59 57 57 62 60 57 58
82 73 71 66 59 60 68 67 58 56 59 49 43 41 43 45 44 45 49 52 48 45 55 46 34 32 39 49 61 60 61 60 57 55 54 53 54 54 56 59 60 58 58
88 89 83 76 68 70 71 68 57 54 54 46 34 31 33 37 39 42 48 48 48 40 42 57 45 39 48 57 62 58 56 58 56 54 53 53 53 52 53 53 55 57 57
102 102 112 91 79 78 70 74 75 65 52 48 28 24 28 33 44 36 38 47 43 38 32 29 38 70 64 60 58 55 54 56 57 55 53 52 52 52 51 53 55 59 57
130 118 170 135 102 103 338 51 67 81 40 5 338 9 41 52 45 46 22 18 34 31 24 28 23 26 79 87 66 54 50 49 55 56 54 53 51 50 47 47 52 59 56
241 247 224 210 202 218 245 232 226 280 295 301 305 299 300 193 125 46 18 354 352 21 9 12 18 27 26 55 79 65 46 43 50 52 54 51 51 48 45 47 54 59 53
231 263 265 236 224 223 231 245 246 261 283 287 310 304 299 313 351 172 9 340 351 348 339 351 358 6 20 29 59 80 57 41 38 46 46 45 47 48 50 48 57 53 47
222 250 259 248 234 231 236 246 247 260 265 264 278 301 312 315 290 270 227 347 349 332 327 321 317 337 358 1 43 56 56 40 32 31 36 34 33 37 41 43 64 63 54
211 240 259 247 238 232 240 250 258 260 259 265 261 259 273 283 277 283 285 290 286 307 319 303 292 302 317 326 348 54 55 36 23 9 14 22 23 24 29 37 60 64 53
209 233 254 247 242 237 238 239 240 247 257 264 267 265 266 270 275 277 279 284 292 297 293 291 279 277 280 270 288 82 99 40 351 336 346 10 6 4 12 30 54 53 44
209 224 233 246 245 243 240 237 239 245 250 259 264 270 269 271 278 277 279 286 290 286 277 258 258 260 260 254 235 161 188 205 277 320 346 355 355 353 352 358 19 25 22
220 224 228 241 244 246 239 235 247 247 253 254 262 269 267 270 268 271 277 284 286 281 272 271 252 260 273 267 235 197 207 184 206 255 319 333 325 325 344 338 336 324 334
215 217 217 230 238 236 237 234 248 249 256 255 258 262 266 267 264 268 273 277 282 285 285 283 272 261 258 277 224 231 232 170 189 213 237 259 270 288 311 306 310 294 307
206 208 214 223 233 238 239 235 250 255 253 258 266 262 265 265 266 266 268 272 275 277 280 283 277 272 259 260 224 243 243 177 195 203 217 231 246 262 286 293 294 288 297
212 218 220 226 228 236 246 245 255 258 259 256 251 256 264 271 267 263 264 267 268 269 273 279 275 276 264 258 241 242 243 231 203 188 207 223 235 248 260 269 274 265 283
215 226 223 224 236 244 251 252 259 261 263 266 260 259 262 263 269 269 261 262 265 265 266 277 278 279 277 271 254 245 244 236 231 181 201 219 226 236 244 254 257 244 255
219 223 224 225 232 246 254 258 261 265 265 268 268 266 268 269 268 270 267 269 268 265 262 267 274 279 272 266 259 251 244 241 237 200 197 210 217 225 231 243 238 227 230
226 230 228 229 235 239 253 261 268 273 273 273 272 272 275 275 274 275 269 271 272 271 268 267 269 269 259 263 258 255 252 244 242 230 218 217 213 217 218 219 214 212 209
235 234 236 237 241 243 257 266 264 267 267 274 274 274 278 291 305 293 283 277 272 270 270 269 270 269 262 262 262 262 255 254 252 245 243 236 227 230 218 207 204 205 203
237 235 241 244 244 243 261 281 277 260 263 266 272 276 275 274 277 279 289 294 291 273 269 268 270 272 271 269 269 262 260 256 262 245 250 252 241 242 235 231 203 200 203
235 241 240 242 246 238 186 249 273 268 268 271 273 275 278 280 272 271 267 259 268 278 276 270 272 276 278 274 267 260 258 261 263 256 252 256 249 252 247 234 194 203 209
231 238 243 246 250 256 190 239 262 258 266 268 269 269 269 274 283 284 276 275 274 272 268 264 269 277 284 286 276 269 266 266 270 258 243 254 249 253 253 237 187 194 206
246 241 247 255 255 252 176 246 268 262 265 268 270 271 271 273 294 288 275 274 275 277 272 268 282 288 303 301 285 264 256 254 259 258 253 256 254 259 253 238 200 195 208
250 257 251 251 253 258 209 232 266 268 271 270 269 268 271 276 279 278 270 272 274 278 279 272 267 260 264 266 260 256 256 254 262 260 244 249 250 254 253 236 221 215 217
Height
1544 1544 1544 1543 1543 1543 1542 1542 1541 1540 1540 1540 1539 1539 1538 1538 1537 1537 1535 1534 1533 1532 1531 1530 1529 1527 1526 1525 1524 1524 1523 1522 1521 1521 1521 1521 1520 1521 1521 1521 1521 1521 1522
1545 1545 1545 1544 1544 1543 1543 1542 1542 1541 1541 1540 1540 1539 1539 1538 1538 1537 1536 1534 1533 1532 1531 1530 1528 1526 1525 1524 1523 1523 1523 1522 1522 1522 1521 1521 1521 1521 1521 1521 1521 1521 1522
1546 1545 1545 1545 1545 1544 1544 1543 1543 1542 1542 1541 1541 1540 1539 1539 1538 1537 1536 1535 1534 1533 1531 1530 1528 1525 1522 1521 1522 1523 1523 1523 1522 1522 1522 1522 1522 1522 1522 1522 1522 1521 1522
1546 1546 1546 1545 1545 1545 1544 1544 1543 1543 1543 1542 1542 1541 1540 1539 1539 1538 1537 1536 1535 1533 1532 1530 1528 1524 1520 1519 1520 1522 1523 1523 1523 1523 1523 1523 1522 1522 1522 1522 1522 1522 1522
1546 1546 1546 1546 1545 1545 1545 1544 1544 1544 1543 1542 1542 1541 1540 1540 1539 1538 1538 1537 1535 1534 1533 1530 1528 1526 1523 1521 1522 1523 1524 1524 1524 1524 1524 1524 1523 1523 1522 1522 1522 1522 1523
1546 1546 1546 1546 1545 1545 1545 1545 1544 1544 1543 1543 1542 1541 1541 1540 1539 1538 1538 1537 1536 1535 1533 1532 1530 1528 1526 1525 1525 1526 1526 1525 1525 1525 1524 1524 1523 1523 1522 1522 1522 1522 1523
1545 1545 1545 1545 1545 1545 1545 1545 1544 1544 1543 1543 1543 1542 1541 1540 1539 1538 1538 1537 1536 1535 1533 1532 1531 1530 1529 1527 1527 1527 1526 1526 1526 1525 1525 1524 1524 1523 1522 1522 1522 1522 1522
1545 1544 1545 1544 1544 1544 1544 1544 1544 1544 1543 1543 1543 1542 1542 1542 1540 1539 1538 1537 1536 1535 1533 1533 1532 1530 1529 1529 1527 1527 1527 1527 1526 1526 1525 1525 1524 1523 1523 1522 1522 1522 1522
1543 1543 1543 1543 1543 1544 1544 1543 1543 1543 1543 1543 1542 1543 1542 1541 1540 1539 1538 1537 1536 1534 1533 1532 1532 1531 1530 1529 1528 1527 1527 1526 1526 1526 1525 1525 1524 1524 1523 1523 1522 1522 1522
1543 1542 1542 1542 1542 1542 1542 1542 1542 1542 1542 1542 1541 1541 1542 1541 1540 1539 1538 1537 1535 1534 1533 1532 1531 1530 1529 1528 1528 1527 1526 1526 1526 1525 1525 1524 1524 1524 1523 1523 1522 1522 1521
1542 1541 1541 1541 1541 1541 1541 1541 1541 1541 1541 1541 1541 1540 1540 1539 1539 1539 1537 1537 1535 1534 1532 1531 1530 1530 1529 1528 1527 1526 1526 1525 1525 1525 1524 1524 1523 1523 1523 1522 1522 1521 1521
1540 1540 1540 1540 1539 1539 1539 1539 1539 1539 1539 1539 1539 1539 1539 1538 1538 1537 1536 1535 1534 1533 1531 1530 1529 1528 1527 1527 1526 1525 1525 1524 1524 1524 1523 1523 1522 1522 1522 1521 1521 1521 1521
1539 1539 1538 1538 1538 1538 1537 1537 1537 1537 1537 1537 1537 1537 1536 1536 1536 1536 1535 1534 1533 1531 1530 1529 1528 1527 1526 1526 1525 1524 1523 1523 1522 1522 1522 1521 1521 1521 1520 1520 1520 1520 1519
1537 1537 1537 1537 1536 1536 1536 1536 1536 1536 1536 1535 1535 1535 1534 1534 1534 1533 1533 1532 1531 1530 1529 1528 1526 1526 1525 1524 1523 1522 1521 1521 1520 1520 1520 1520 1519 1519 1519 1519 1519 1518 1518
1536 1536 1535 1535 1535 1534 1534 1534 1534 1534 1533 1533 1533 1533 1533 1532 1531 1531 1531 1530 1531 1528 1527 1526 1525 1524 1523 1522 1521 1520 1520 1519 1518 1518 1518 1518 1518 1518 1517 1517 1517 1516 1516
1534 1534 1534 1533 1533 1533 1532 1532 1532 1532 1532 1531 1531 1531 1531 1530 1529 1529 1528 1528 1527 1527 1525 1524 1523 1522 1521 1520 1519 1518 1518 1517 1516 1516 1516 1516 1516 1516 1516 1515 1515 1515 1514
1531 1531 1531 1531 1531 1531 1531 1531 1530 1530 1530 1530 1529 1529 1528 1528 1527 1526 1525 1525 1524 1524 1522 1521 1520 1519 1518 1517 1517 1516 1516 1515 1515 1514 1514 1514 1514 1514 1514 1513 1513 1513 1512
1529 1529 1529 1529 1529 1529 1529 1529 1528 1528 1528 1528 1527 1527 1526 1525 1524 1523 1523 1522 1521 1521 1520 1518 1517 1516 1515 1514 1514 1513 1513 1513 1513 1512 1512 1511 1511 1511 1511 1511 1511 1511 1510
1526 1527 1527 1527 1526 1526 1526 1526 1526 1526 1525 1525 1525 1524 1523 1522 1521 1521 1520 1519 1518 1517 1516 1515 1514 1513 1512 1511 1511 1511 1511 1510 1510 1510 1509 1509 1509 1509 1509 1509 1509 1508 1508
1524 1524 1524 1524 1524 1524 1524 1524 1523 1523 1523 1522 1522 1521 1520 1520 1519 1518 1517 1516 1515 1514 1513 1512 1511 1510 1509 1508 1508 1508 1508 1508 1507 1507 1507 1506 1506 1506 1506 1505 1505 1505 1505
1521 1521 1521 1521 1521 1521 1521 1521 1521 1520 1520 1519 1519 1518 1517 1516 1515 1515 1514 1513 1512 1511 1511 1509 1508 1508 1507 1506 1506 1505 1505 1505 1504 1504 1504 1504 1503 1503 1503 1502 1502 1502 1502
1518 1518 1518 1518 1518 1518 1518 1518 1518 1517 1517 1516 1516 1515 1514 1513 1512 1511 1510 1510 1509 1508 1508 1507 1506 1505 1504 1504 1503 1503 1502 1502 1501 1502 1501 1501 1500 1500 1499 1499 1499 1499 1499
1515 1515 1515 1515 1515 1515 1515 1515 1514 1514 1514 1513 1513 1512 1511 1510 1509 1508 1507 1506 1505 1504 1504 1504 1503 1501 1501 1500 1500 1499 1499 1498 1498 1497 1497 1497 1497 1496 1496 1496 1495 1495 1495
1512 1512 1512 1512 1512 1512 1511 1511 1511 1511 1511 1510 1509 1508 1507 1506 1505 1504 1503 1502 1501 1500 1500 1499 1498 1497 1497 1496 1496 1495 1495 1494 1493 1493 1493 1493 1493 1492 1492 1492 1491 1491 1491
1509 1509 1509 1508 1508 1508 1508 1508 1508 1507 1507 1506 1505 1504 1503 1502 1502 1501 1500 1498 1497 1496 1495 1494 1493 1492 1492 1491 1491 1491 1490 1490 1489 1489 1489 1489 1488 1488 1488 1487 1487 1487 1487
1505 1505 1505 1505 1505 1505 1505 1504 1504 1504 1503 1502 1501 1500 1499 1498 1497 1496 1496 1495 1493 1492 1491 1490 1489 1488 1487 1486 1486 1486 1486 1486 1485 1485 1484 1484 1484 1484 1484 1483 1483 1483 1483